Weather History for Paso Robles, CA

Change the Weather History Date:

Tuesday, October 9, 2012

  Actual Average Record
Temperature  
Mean Temperature 62 °F 64 °F  
Max Temperature 78 °F 82 °F 98 °F (1966)
Min Temperature 46 °F 46 °F 30 °F (1949)
Degree Days  
Heating Degree Days 3 3  
Month to date heating degree days 7 23  
Since 1 July heating degree days 11 55  
Cooling Degree Days 0 2  
Month to date cooling degree days 43 22  
Year to date cooling degree days 1119 913  
Growing Degree Days 12 (Base 50)    
Moisture  
Dew Point 46 °F    
Average Humidity 61    
Maximum Humidity 93    
Minimum Humidity 29    
Precipitation  
Precipitation 0.00 in 0.01 in 0.17 in (1972)
Month to date precipitation 0.00 0.11  
Year to date precipitation 5.88 9.23  
Since 1 July precipitation 0.01 0.44  
Sea Level Pressure  
Sea Level Pressure 29.99 in    
Wind  
Wind Speed 5 mph (SW)    
Max Wind Speed 17 mph    
Max Gust Speed 22 mph    
Visibility 10 miles    
Events      
T = Trace of Precipitation, MM = Missing Value Source: NWS Daily Summary

Daily Weather History Graph

Daily Weather History Graph

Search for Another Location

Airport:

Trip Planner

Search our weather history database for the weather conditions in past years. The results will help you decide how hot, cold, wet, or windy it might be!

Date:

Astronomy

Oct. 09, 2012 Rise Set
Actual Time 7:04 AM PDT 6:34 PM PDT
Civil Twilight 6:38 AM PDT 6:59 PM PDT
Nautical Twilight 6:09 AM PDT 7:29 PM PDT
Astronomical Twilight 5:39 AM PDT 7:58 PM PDT
Moon 12:57 AM PDT (10/9) 2:54 PM PDT (10/9)
Length of Visible Light 12h 20m
Length of Day
11h 29m
Waning Crescent, 35% of the Moon is Illuminated
Oct 9
Waning Crescent
Oct 15
New
Oct 21
First Quarter
Oct 29
Full
Nov 6
Last Quarter

Hourly Weather History & Observations

Time (PDT) Temp. Dew Point Humidity Pressure Visibility Wind Dir Wind Speed Gust Speed Precip Events Conditions
1:53 AM 55.9 °F 48.9 °F 77% 30.03 in 10.0 mi West 4.6 mph - N/A   Overcast
2:53 AM 53.1 °F 48.0 °F 83% 30.03 in 10.0 mi West 5.8 mph - N/A   Partly Cloudy
3:53 AM 53.1 °F 48.0 °F 83% 30.01 in 10.0 mi West 6.9 mph - N/A   Mostly Cloudy
4:53 AM 50.0 °F 46.9 °F 89% 30.02 in 10.0 mi Calm Calm - N/A   Clear
5:53 AM 48.0 °F 46.0 °F 93% 30.02 in 10.0 mi Calm Calm - N/A   Clear
6:37 AM 46.4 °F 44.6 °F 93% 30.03 in 10.0 mi Calm Calm - N/A   Scattered Clouds
6:46 AM 46.4 °F 44.6 °F 93% 30.03 in 10.0 mi Calm Calm - N/A   Mostly Cloudy
6:53 AM 46.9 °F 44.1 °F 90% 30.03 in 10.0 mi Calm Calm - N/A   Mostly Cloudy
7:24 AM 46.4 °F 44.6 °F 93% 30.03 in 10.0 mi Calm Calm - N/A   Scattered Clouds
7:53 AM 48.9 °F 45.0 °F 86% 30.03 in 10.0 mi Calm Calm - N/A   Clear
8:05 AM 48.2 °F 44.6 °F 87% 30.04 in 10.0 mi Calm Calm - N/A   Scattered Clouds
8:14 AM 50.0 °F 46.4 °F 87% 30.04 in 10.0 mi Calm Calm - N/A   Mostly Cloudy
8:49 AM 51.8 °F 46.4 °F 82% 30.05 in 10.0 mi Calm Calm - N/A   Scattered Clouds
8:53 AM 52.0 °F 46.9 °F 83% 30.04 in 10.0 mi Calm Calm - N/A   Partly Cloudy
9:53 AM 57.9 °F 48.9 °F 72% 30.04 in 10.0 mi Calm Calm - N/A   Clear
10:53 AM 63.0 °F 46.9 °F 56% 30.02 in 10.0 mi NW 4.6 mph - N/A   Clear
11:53 AM 69.1 °F 45.0 °F 42% 29.99 in 10.0 mi North 4.6 mph - N/A   Clear
12:53 PM 73.0 °F 43.0 °F 34% 29.96 in 10.0 mi Calm Calm - N/A   Clear
1:53 PM 73.9 °F 39.9 °F 29% 29.93 in 10.0 mi Calm Calm - N/A   Clear
2:53 PM 77.0 °F 42.1 °F 29% 29.91 in 10.0 mi SSW 9.2 mph - N/A   Clear
3:53 PM 75.9 °F 42.1 °F 30% 29.91 in 10.0 mi SW 12.7 mph - N/A   Clear
4:53 PM 73.9 °F 42.1 °F 32% 29.91 in 10.0 mi SSW 12.7 mph - N/A   Clear
5:53 PM 70.0 °F 45.0 °F 41% 29.91 in 10.0 mi SSW 11.5 mph - N/A   Clear
6:53 PM 64.9 °F 48.0 °F 54% 29.93 in 10.0 mi SSW 8.1 mph - N/A   Clear
7:53 PM 61.0 °F 50.0 °F 67% 29.95 in 10.0 mi South 9.2 mph - N/A   Clear
8:53 PM 59.0 °F 51.1 °F 75% 29.96 in 10.0 mi SSW 6.9 mph 20.7 mph N/A   Clear
9:53 PM 59.0 °F 51.1 °F 75% 29.97 in 10.0 mi SSW 8.1 mph - N/A   Mostly Cloudy
10:53 PM 57.9 °F 52.0 °F 81% 29.97 in 10.0 mi SSW 6.9 mph - N/A   Mostly Cloudy
11:53 PM 57.9 °F 51.1 °F 78% 29.96 in 10.0 mi SW 3.5 mph - N/A   Mostly Cloudy